SCP
1 1 1 0 0 0 0 0 0 0 0 0 0 0 0 0 0 0 0 0 0 0 0 0 0 0 0 0 0 0 0 0 0 0 0 0 0 0 0 0 0 0 0
1 1 1 0 0 0 0 0 0 0 0 0 0 0 0 0 0 0 0 0 0 0 0 0 0 0 0 0 0 0 0 0 0 0 0 0 0 0 0 0 0 0 0
1 0 0 0 0 0 0 0 0 0 0 0 0 0 0 0 0 0 0 0 0 0 0 0 0 0 0 0 0 0 0 0 0 0 0 0 0 0 0 0 0 0 0
0 0 0 0 0 0 0 0 0 0 0 0 0 0 0 0 0 0 0 0 0 0 0 0 0 0 0 0 0 0 0 0 0 0 0 0 0 0 0 0 0 0 0
0 0 0 0 0 0 0 0 0 0 0 0 0 0 0 0 0 0 0 0 0 0 0 0 0 0 0 0 0 0 0 0 0 0 0 0 0 0 0 0 0 0 0
0 0 0 0 0 0 0 0 0 0 0 0 0 0 0 0 0 0 0 0 0 0 0 0 0 0 0 0 0 0 0 0 0 0 0 0 0 0 0 0 0 0 0
0 0 0 0 0 0 0 0 0 0 0 0 0 0 0 0 0 0 0 0 0 0 0 0 0 0 0 0 0 0 0 0 0 0 0 0 0 0 0 0 0 0 0
0 0 0 0 0 0 0 0 0 0 0 0 0 0 0 0 0 0 0 0 0 0 0 0 0 0 0 0 0 0 0 0 0 0 0 0 0 0 0 0 0 0 0
0 0 0 0 0 0 0 0 0 0 0 0 0 0 0 0 0 0 0 0 0 0 0 0 0 0 0 0 0 0 0 0 0 0 0 0 0 0 0 0 0 0 0
0 0 0 0 0 0 0 0 0 0 0 0 0 0 0 0 0 0 0 0 0 0 0 0 0 0 0 0 0 0 0 0 0 0 0 0 0 0 0 0 0 0 0
0 0 0 0 0 0 0 0 0 0 0 0 0 0 0 0 0 0 0 0 0 0 0 0 0 0 0 0 0 0 0 0 0 0 0 0 0 0 0 0 0 0 0
0 0 0 0 0 0 0 0 0 0 0 0 0 0 0 0 0 0 0 0 0 0 0 0 0 0 0 0 0 0 0 0 0 0 0 0 0 0 0 0 0 0 0
0 0 0 0 0 0 0 0 0 0 0 0 0 0 0 0 0 0 0 0 0 0 0 0 0 0 0 0 0 0 0 0 0 0 0 0 0 0 0 0 0 0 0
0 0 0 0 0 0 0 0 0 0 0 0 0 0 0 0 0 0 0 0 0 0 0 0 0 0 0 0 0 0 0 0 0 0 0 0 0 0 0 0 0 0 0
0 0 0 0 0 0 0 0 0 0 0 0 0 0 0 0 0 0 0 0 0 0 0 0 0 0 0 0 0 0 0 0 0 0 0 0 0 0 0 0 0 0 0
0 0 0 0 0 0 0 0 0 0 0 0 0 0 0 0 0 0 0 0 0 0 0 0 0 0 0 0 0 0 0 0 0 0 0 0 0 0 0 0 0 0 0
0 0 0 0 0 0 0 0 0 0 0 0 0 0 0 0 0 0 0 0 0 0 0 0 0 0 0 0 0 0 0 0 0 0 0 0 0 0 0 0 0 0 0
0 0 0 0 0 0 0 0 0 0 0 0 0 0 0 0 0 0 0 0 0 0 0 0 0 0 0 0 0 0 0 0 0 0 0 0 0 0 0 0 0 0 0
0 0 0 0 0 0 0 0 0 0 0 0 0 0 0 0 0 0 0 0 0 0 0 0 0 0 0 0 0 0 0 0 0 0 0 0 0 0 0 0 0 0 0
0 0 0 0 0 0 0 0 0 0 0 0 0 0 0 0 0 0 0 0 0 0 0 0 0 0 0 0 0 0 0 0 0 0 0 0 0 0 0 0 0 0 0
0 0 0 0 0 0 0 0 0 0 0 0 0 0 0 0 0 0 0 0 0 0 0 0 0 0 0 0 0 0 0 0 0 0 0 0 0 0 0 0 0 0 0
0 0 0 0 0 0 0 0 0 0 0 0 0 0 0 0 0 0 0 0 0 0 0 0 0 0 0 0 0 0 0 0 0 0 0 0 0 0 0 0 0 0 0
0 0 0 0 0 0 0 0 0 0 0 0 0 0 0 0 0 0 0 0 0 0 0 0 0 0 0 0 0 0 0 0 0 0 0 0 0 0 0 0 0 0 0
0 0 0 0 0 0 0 0 0 0 0 0 0 0 0 0 0 0 0 0 0 0 0 0 0 0 0 0 0 0 0 0 0 0 0 0 0 0 0 0 0 0 0
0 0 0 0 0 0 0 0 0 0 0 0 0 0 0 0 0 0 0 0 0 0 0 0 0 0 0 0 0 0 0 0 0 0 0 0 0 0 0 0 0 0 0
0 0 0 0 0 0 0 0 0 0 0 0 0 0 0 0 0 0 0 0 0 0 0 0 0 0 0 0 0 0 0 0 0 0 0 0 0 0 0 0 0 -0 -0
Wind_Speed
9 9 9 9 9 8 8 9 9 8 8 9 8 8 8 7 6 6 5 6 6 4 4 4 4 3 2 2 2 2 2 3 3 2 1 2 2 2 1 1 2 3 4
9 8 9 9 9 9 9 9 9 8 8 9 8 8 8 8 7 7 7 6 6 6 5 5 4 3 3 2 2 3 2 3 3 3 1 1 2 2 2 2 2 3 3
8 8 8 9 9 10 9 9 9 9 8 8 9 9 9 9 8 8 7 7 7 6 6 6 5 5 4 3 3 3 2 2 2 2 2 1 1 1 1 2 2 2 3
8 9 9 9 9 9 8 8 9 9 9 9 10 10 9 9 9 8 7 7 6 6 6 6 6 7 6 5 4 4 3 3 2 2 2 1 1 1 1 2 2 2 3
8 9 9 8 8 8 8 8 8 9 10 9 9 9 8 8 8 9 8 8 7 6 5 6 6 8 8 7 5 5 4 3 3 2 2 2 2 2 2 2 3 3 3
8 9 8 7 8 8 8 8 8 8 8 9 10 10 10 8 11 13 10 8 7 7 6 6 6 7 8 10 9 8 8 6 5 4 3 4 4 4 2 2 2 2 3
8 8 8 8 9 9 9 8 9 9 8 9 9 9 10 10 12 14 13 8 8 7 7 6 5 5 6 5 7 8 8 9 9 6 6 6 5 5 3 3 4 4 5
8 8 8 8 9 8 8 9 9 8 8 9 9 9 8 9 12 13 13 9 7 7 7 7 7 6 6 6 5 5 5 6 7 7 6 7 6 4 5 4 3 4 4
9 9 9 9 9 8 9 9 8 7 8 8 8 9 9 8 12 12 11 6 6 6 6 7 7 7 8 8 6 5 5 5 6 8 8 7 6 5 4 3 3 3 4
10 9 9 9 9 9 9 8 6 6 8 8 7 8 9 8 9 11 11 5 5 5 4 5 7 8 7 8 7 6 6 6 4 3 4 4 4 4 6 6 5 4 4
7 7 8 8 8 8 7 6 6 6 6 7 7 6 6 6 7 10 11 6 6 5 4 4 4 7 8 8 7 6 7 5 3 3 3 3 2 2 3 4 5 5 5
5 6 7 7 7 6 6 6 6 7 6 6 5 4 3 4 5 7 10 9 7 5 4 3 3 5 6 6 5 5 6 4 2 2 2 3 3 3 3 3 4 5 6
5 6 6 6 5 5 6 6 5 5 5 5 4 4 3 2 3 5 7 8 7 4 3 3 3 3 3 3 4 4 4 3 2 3 3 3 3 3 2 2 2 3 5
6 5 5 6 5 4 4 4 4 4 5 4 4 4 3 2 2 2 3 3 4 3 2 2 3 3 2 1 1 1 1 2 2 2 2 2 2 2 2 2 2 3 3
5 5 5 5 6 5 4 3 3 2 3 5 4 4 4 3 3 5 5 4 4 4 4 3 2 2 1 1 1 0 1 1 1 1 1 2 2 2 3 2 2 2 3
5 5 5 5 5 5 6 6 9 7 7 6 5 6 4 5 7 8 7 6 6 7 5 3 2 1 1 1 0 0 0 0 1 1 1 2 2 3 3 3 2 3 4
5 5 5 5 5 5 5 6 6 7 10 10 8 7 7 7 8 8 8 8 7 8 5 2 2 1 1 1 0 0 0 1 0 1 1 2 2 2 3 3 3 3 4
5 6 6 5 5 5 5 5 5 6 5 5 7 8 8 8 8 7 8 9 6 4 3 2 1 1 1 0 0 0 0 1 1 1 1 2 2 2 3 3 3 4 5
5 4 5 5 5 6 6 6 6 7 6 6 5 6 8 9 10 9 7 5 5 4 3 2 2 1 1 1 1 1 1 1 1 1 2 2 2 2 3 3 4 5 5
6 9 7 6 6 6 6 7 6 6 6 5 5 4 4 6 6 6 5 5 4 4 3 3 3 3 2 2 2 2 2 2 2 2 2 2 3 3 3 4 4 4 4
6 7 10 7 6 6 6 7 7 7 6 6 5 5 6 6 6 6 5 5 4 4 3 3 3 3 3 3 2 3 3 2 3 3 3 3 3 3 3 3 4 4 4
6 6 6 7 7 7 7 6 7 7 7 7 6 6 8 6 5 5 5 4 4 3 3 3 3 2 2 2 2 2 2 3 3 3 3 3 3 3 3 3 4 4 4
8 8 8 7 7 9 8 7 7 7 7 7 6 6 6 5 5 4 4 4 3 3 3 3 3 2 2 2 2 2 2 2 3 3 4 3 3 3 4 4 5 6 6
8 9 9 8 8 7 7 7 7 7 7 6 6 5 5 4 4 5 4 3 4 3 3 3 3 3 4 3 3 3 3 3 3 3 4 3 4 4 4 4 5 7 6
9 8 8 7 7 7 7 7 7 7 6 6 5 5 5 4 4 4 3 3 4 4 4 4 3 3 4 4 4 4 4 4 4 3 3 3 4 4 5 6 5 6 7
9 9 8 7 7 7 7 7 6 6 5 5 5 4 4 4 4 3 3 3 3 3 4 3 5 5 5 4 5 6 4 4 4 4 3 3 3 4 5 5 6 6 7
Wind_Direction
189 192 190 192 190 187 188 190 187 182 180 181 182 180 179 177 174 173 177 172 174 177 176 177 182 166 163 161 153 158 165 162 192 246 254 273 261 263 265 242 242 244 254
190 189 191 189 186 190 194 193 187 187 187 185 181 180 183 181 178 180 184 182 181 183 185 180 187 176 171 170 168 174 179 181 182 214 239 254 252 258 260 265 262 256 258
183 185 188 188 189 195 197 193 189 189 188 185 182 185 187 183 183 187 185 184 189 191 188 190 193 180 188 188 187 187 187 182 179 193 227 247 269 286 276 276 277 281 274
183 187 192 194 194 196 195 193 193 191 188 188 189 190 188 183 184 187 185 186 192 198 197 199 197 194 198 195 196 196 186 180 180 195 223 242 254 272 252 259 279 275 283
185 191 197 195 191 189 192 195 194 192 194 191 188 190 188 186 189 186 188 190 193 200 204 207 209 208 206 201 199 195 186 188 193 206 223 226 234 228 232 228 254 283 275
188 195 192 187 188 192 195 194 194 196 194 189 191 192 193 199 194 188 187 191 194 199 207 214 219 218 218 216 216 205 192 194 204 206 218 227 239 232 226 224 240 270 281
193 194 191 188 192 195 195 191 196 197 192 192 195 195 199 201 192 190 191 188 196 204 208 211 221 221 212 215 220 218 217 219 210 204 222 231 234 226 211 226 226 237 251
197 197 194 192 197 195 191 196 199 195 194 197 195 196 197 201 195 195 194 194 202 208 211 212 214 218 213 209 213 219 225 230 225 220 227 235 236 225 211 221 229 244 257
201 200 197 194 196 195 198 200 197 191 195 195 191 192 197 203 196 194 187 190 205 217 219 217 215 220 219 204 202 218 237 250 244 230 230 240 243 232 208 200 214 235 268
203 199 193 190 192 197 201 198 190 188 195 191 192 194 196 201 192 189 183 188 202 216 221 220 219 221 218 203 203 212 233 247 245 239 235 249 248 241 215 212 222 235 257
198 186 183 186 189 192 189 181 176 178 179 182 185 188 191 194 188 186 183 189 199 206 213 220 223 213 218 214 208 217 231 237 234 233 247 256 255 247 234 222 220 225 238
176 177 179 180 184 182 173 170 167 168 173 177 175 177 178 180 183 187 188 194 193 197 209 210 209 200 207 212 211 221 229 231 230 236 249 260 260 259 257 245 232 231 234
165 168 167 164 166 162 163 163 158 162 168 172 171 175 172 160 161 174 184 192 195 193 193 178 180 187 192 204 216 219 220 215 218 237 253 262 260 264 270 268 259 252 255
161 158 154 152 147 140 141 146 152 161 166 166 168 169 159 148 161 163 166 173 178 178 177 142 137 138 137 131 139 221 213 207 207 228 250 266 279 282 280 281 281 288 284
144 141 140 136 132 124 109 92 124 126 156 160 166 159 157 165 177 161 158 160 160 156 136 110 101 101 103 98 94 81 97 117 175 244 260 283 292 291 286 282 274 274 271
134 133 133 127 124 123 118 96 61 70 79 95 111 126 122 129 129 130 132 132 133 131 119 117 127 134 152 178 177 103 79 119 250 257 269 279 285 290 292 290 280 271 277
127 129 125 124 126 129 129 126 111 75 65 66 78 97 108 112 112 116 118 109 103 112 106 113 120 130 139 139 139 156 290 310 299 283 281 286 291 295 295 297 296 289 288
101 110 117 121 123 122 121 119 118 118 107 78 63 74 89 91 91 97 105 100 86 89 99 107 108 105 111 124 153 230 326 359 6 340 322 317 312 303 303 303 302 299 296
93 98 104 108 110 111 110 108 105 105 103 99 91 74 78 87 80 76 90 92 101 98 94 87 80 74 69 67 50 40 37 21 9 351 339 329 320 311 305 306 305 306 301
81 88 97 104 103 104 106 108 106 104 100 95 92 93 92 87 83 77 76 81 84 85 87 85 74 66 60 57 54 47 42 30 15 3 349 338 327 316 308 306 305 306 303
82 84 87 91 93 97 100 105 107 105 103 96 86 80 97 99 97 92 87 81 81 80 74 73 71 67 61 55 50 45 39 17 360 349 339 331 327 322 316 311 310 310 311
80 80 82 85 86 88 91 93 95 96 98 96 89 79 82 86 88 86 82 78 74 72 76 81 77 70 63 51 39 29 13 356 345 337 329 325 326 321 317 317 320 319 314
79 81 80 81 84 85 86 86 90 93 93 91 89 83 79 77 75 75 73 68 65 62 60 68 71 60 51 42 34 27 3 340 330 325 321 322 324 319 313 310 310 311 310
74 78 78 78 80 81 83 82 85 87 88 87 83 80 79 79 77 71 65 60 57 53 50 52 53 49 42 34 28 24 13 350 334 327 323 314 311 307 304 303 304 307 307
70 73 75 75 78 81 82 81 80 81 81 81 79 76 75 75 73 68 62 60 60 56 49 43 43 42 35 27 18 10 1 350 337 329 319 308 306 307 308 309 309 310 309
72 73 73 72 74 76 79 80 79 78 78 76 73 71 69 69 66 60 57 54 51 46 38 33 33 34 28 20 15 7 359 351 343 331 317 309 310 312 317 312 314 313 313